User: anonymous   Login
Location: Plymouth
(43.7570°N, 71.6890°W)
Time: 16:46:56
(UTC-05:00)
Language:

Cosmos 2016 Rocket - Orbit

View from above orbital plane
View from above orbital plane
View from above satellite
View from above satellite

Ground track
Ground track

The orbit data is extracted from the following two-line orbital elements,

1 19922U 89028B   16338.18043164  .00000083  00000-0  67502-4 0  9993
2 19922  82.9601 212.1811 0037787  74.9921  77.2666 13.77191643390256
Epoch (UTC): 03 December 2016 04:19:49
Eccentricity: 0.0037787
inclination: 82.9601°
perigee height: 946 km
apogee height: 1001 km
right ascension of ascending node: 212.1811°
argument of perigee: 74.9921°
revolutions per day: 13.77191643
mean anomaly at epoch: 77.2666°
orbit number at epoch: 39025

The dashed part of the orbit path shows where the satellite is in the earth's shadow,  

DLR